This is the latest recevied weather packets stored in our database for station/object iz1wiy-3. If no packets are shown the sender has not sent any weather packets the latest 1 day(s).
| Time | Temp. | Humidity | Pressure | Rain* | Wind** | Luminosity | Snow |
|---|---|---|---|---|---|---|---|
| 1778047203 | 17.22° C | 87% | 1009.4 hPa | 16.51 mm | 3.13 m/s, 212° | - | - |
| 1778047143 | 17.22° C | 87% | 1009.3 hPa | 16.51 mm | 3.13 m/s, 212° | - | - |
| 1778047083 | 17.22° C | 87% | 1009.3 hPa | 16.51 mm | 3.13 m/s, 208° | - | - |
| 1778047023 | 17.22° C | 88% | 1009.3 hPa | 16.51 mm | 3.13 m/s, 204° | - | - |
| 1778046963 | 17.22° C | 88% | 1009.3 hPa | 16.51 mm | 2.68 m/s, 202° | - | - |
| 1778046903 | 17.22° C | 88% | 1009.3 hPa | 16.51 mm | 2.68 m/s, 201° | - | - |
| 1778046843 | 17.22° C | 88% | 1009.3 hPa | 16.51 mm | 2.24 m/s, 201° | - | - |
| 1778046783 | 17.22° C | 88% | 1009.4 hPa | 16.76 mm | 2.24 m/s, 200° | - | - |
| 1778046723 | 17.22° C | 88% | 1009.3 hPa | 16.76 mm | 1.79 m/s, 201° | - | - |
| 1778046663 | 17.22° C | 89% | 1009.3 hPa | 16.51 mm | 1.79 m/s, 201° | - | - |
| 1778046603 | 16.67° C | 89% | 1009.2 hPa | 16.51 mm | 1.34 m/s, 201° | - | - |
| 1778046543 | 16.67° C | 89% | 1009.3 hPa | 17.02 mm | 1.34 m/s, 199° | - | - |
| 1778046483 | 16.67° C | 89% | 1009.1 hPa | 17.02 mm | 0.89 m/s, 198° | - | - |
| 1778046423 | 16.67° C | 90% | 1009.1 hPa | 17.02 mm | 0.89 m/s, 196° | - | - |
| 1778046363 | 16.67° C | 90% | 1009 hPa | 17.02 mm | 0.89 m/s, 209° | - | - |
| 1778046304 | 16.11° C | 90% | 1009 hPa | 16.76 mm | 0.45 m/s, 212° | - | - |
| 1778046243 | 16.11° C | 90% | 1008.8 hPa | 17.02 mm | 0.45 m/s, 223° | - | - |
| 1778046184 | 16.11° C | 90% | 1009 hPa | 17.27 mm | 0.45 m/s, 222° | - | - |
| 1778046123 | 16.11° C | 90% | 1008.9 hPa | 17.53 mm | 0.45 m/s, 233° | - | - |
| 1778046063 | 16.11° C | 90% | 1008.9 hPa | 17.53 mm | 0.45 m/s, 281° | - | - |
| 1778046003 | 16.11° C | 90% | 1008.9 hPa | 17.53 mm | 0.89 m/s, 10° | - | - |
| 1778045943 | 16.11° C | 89% | 1008.8 hPa | 17.78 mm | 0.89 m/s, 2° | - | - |
| 1778045884 | 16.11° C | 89% | 1008.8 hPa | 17.78 mm | 0.89 m/s, 333° | - | - |
| 1778045823 | 16.11° C | 89% | 1008.9 hPa | 17.78 mm | 0.89 m/s, 300° | - | - |
| 1778045763 | 16.11° C | 89% | 1008.9 hPa | 17.78 mm | 0.89 m/s, 299° | - | - |
* Rain latest hour (hover to see other rain measurements)
** Current wind speed in m/s (hover to see current wind gust speed)